Home > Time Zones > World Clock > Weather > Spain > Palma > Past weeks

Flag for Spain Weather past 2 weeks in Palma, Majorca, Spain

Now
72 °F

Clear.


Feels Like: 74 °F
Forecast: 67 / 88 °F
Wind: 1 mph from East

Location: Palma De Mallorca / Son San Juan

Current Time: Jul 24, 2014 at 1:03:15 AM

Latest Report: Jul 24, 2014 at 12:30 AM


Visibility: 10 mi

Pressure: 29.89 "Hg

Humidity: 73%

Dew point: 63 °F

Location of PalmaLocation

Historic Weather in Palma — Graph

°F

Palma temperature yesterday

Maximum temperature yesterday: 84 °F (at 4:30 PM)
Minimum temperature yesterday: 63 °F (at 7:00 AM)
Average temperature yesterday: 76 °F

Past Weeks' High & Low Weather Summary

 TemperatureHumidityPressure
High97 °F (Jul 18, 1:30 PM)89% (Jul 19, 11:30 PM)30.12 "Hg (Jul 19, 11:30 PM)
Low59 °F (Jul 11, 5:30 AM)20% (Jul 18, 1:30 PM)29.80 "Hg (Jul 20, 4:00 AM)
Average77 °F62%30.00 "Hg
* Reported Midnight between Jul 8 and Jul 9 — Midnight between Jul 23 and Jul 24, Palma, Weather by CustomWeather, © 2014

Note: Actual official high and low records may vary slightly from our data, if they occured in-between our weather recording intervals... More about our weather records

Advertising

Palma weather history for previous 24 hours

 ConditionsComfort  
Time TempWeatherWind HumidityBarometerVisibility
12:00 AM
Jul 24
73 °FClear.1 mph74%29.89 "Hg10 mi
11:30 PM
Jul 23
75 °FClear.1 mph65%29.89 "Hg10 mi
11:00 PM79 °FClear.No wind61%29.89 "Hg10 mi
10:30 PM79 °FClear.1 mph61%29.89 "Hg10 mi
10:00 PM81 °FSunny.2 mph58%29.86 "Hg10 mi
9:30 PM81 °FSunny.2 mph54%29.86 "Hg10 mi
9:00 PM81 °FSunny.5 mph62%29.86 "Hg10 mi
8:30 PM81 °FPassing clouds.8 mph58%29.86 "HgN/A
8:00 PM81 °FPassing clouds.9 mph58%29.86 "HgN/A
7:30 PM82 °FSunny.13 mph51%29.86 "Hg10 mi
7:00 PM82 °FSunny.14 mph58%29.86 "Hg10 mi
6:30 PM82 °FSunny.12 mph58%29.86 "Hg10 mi
6:00 PM82 °FPassing clouds.12 mph58%29.86 "HgN/A
5:30 PM84 °FSunny.13 mph51%29.86 "Hg10 mi
5:00 PM84 °FPassing clouds.14 mph55%29.86 "HgN/A
4:30 PM84 °FPassing clouds.10 mph43%29.89 "HgN/A
4:00 PM82 °FPassing clouds.10 mph58%29.89 "HgN/A
3:00 PM82 °FPassing clouds.10 mph62%29.92 "HgN/A
2:00 PM82 °FPassing clouds.10 mph58%29.92 "HgN/A
1:30 PM82 °FPassing clouds.10 mph62%29.92 "HgN/A
1:00 PM82 °FPassing clouds.12 mph62%29.92 "HgN/A
12:00 PM81 °FPassing clouds.10 mph66%29.92 "HgN/A
11:00 AM81 °FPassing clouds.7 mph54%29.92 "HgN/A
7:30 AM64 °FClear.1 mph88%29.92 "Hg10 mi
7:00 AM63 °FClear.No wind88%29.92 "Hg10 mi
6:30 AM64 °FClear.No wind83%29.92 "Hg10 mi
6:00 AM64 °FClear.1 mph83%29.92 "Hg10 mi
5:30 AM64 °FClear.No wind83%29.92 "Hg10 mi
5:00 AM66 °FClear.2 mph78%29.92 "Hg10 mi
4:30 AM66 °FClear.2 mph78%29.92 "Hg10 mi
4:00 AM68 °FClear.No wind78%29.92 "Hg10 mi
3:30 AM68 °FClear.No wind83%29.95 "Hg10 mi
3:00 AM68 °FClear.No wind83%29.95 "Hg10 mi
2:30 AM68 °FClear.No wind78%29.95 "Hg10 mi
2:00 AM68 °FClear.1 mph78%29.95 "Hg10 mi
1:00 AM70 °FClear.2 mph78%29.95 "Hg10 mi
Weather by CustomWeather, © 2014

See weather overviewHow to use our weather pages